H1 CPF 2 NER 2024 9 5 9 249 01 glonass139 H2 1808601 9139 43687 2024 9 5 0 0 0 2024 9 8 23 45 0 900 1 1 0 0 0 1 H9 10 0 60558 0.00000 0 18197279.550 16480167.247 6930913.360 10 0 60558 900.00000 0 18731074.142 16887965.674 3816373.114 10 0 60558 1800.00000 0 19014312.962 16986173.838 627687.505 10 0 60558 2700.00000 0 19004119.644 16808936.469 -2573194.414 10 0 60558 3600.00000 0 18667164.700 16399590.325 -5724042.768 10 0 60558 4500.00000 0 17981255.487 15808654.536 -8763561.812 10 0 60558 5400.00000 0 16936473.085 15091530.323 -11632589.462 10 0 60558 6300.00000 0 15535806.263 14306007.756 -14275257.175 10 0 60558 7200.00000 0 13795253.997 13509685.631 -16640086.654 10 0 60558 8100.00000 0 11743390.475 12757414.357 -18681001.132 10 0 60558 9000.00000 0 9420409.358 12098870.813 -20358230.785 10 0 60558 9900.00000 0 6876686.209 11576368.542 -21639093.997 10 0 60558 10800.00000 0 4170918.366 11222996.528 -22498638.872 10 0 60558 11700.00000 0 1367919.430 11061165.752 -22920132.252 10 0 60558 12600.00000 0 -1463839.884 11101625.296 -22895386.653 10 0 60558 13500.00000 0 -4254842.159 11342989.689 -22424918.821 10 0 60558 14400.00000 0 -6937176.305 11771797.406 -21517936.935 10 0 60558 15300.00000 0 -9447122.765 12363097.819 -20192156.942 10 0 60558 16200.00000 0 -11727563.482 13081541.462 -18473451.832 10 0 60558 17100.00000 0 -13730116.628 13882927.029 -16395340.981 10 0 60558 18000.00000 0 -15416907.766 14716139.208 -13998329.858 10 0 60558 18900.00000 0 -16761904.503 15525394.841 -11329113.394 10 0 60558 19800.00000 0 -17751760.199 16252701.843 -8439658.993 10 0 60558 20700.00000 0 -18386132.974 16840426.396 -5386187.682 10 0 60558 21600.00000 0 -18677468.522 17233859.378 -2228073.859 10 0 60558 22500.00000 0 -18650257.807 17383673.238 973314.288 10 0 60558 23400.00000 0 -18339802.806 17248165.287 4155810.481 10 0 60558 24300.00000 0 -17790544.092 16795192.670 7257658.413 10 0 60558 25200.00000 0 -17054022.261 16003717.498 10218708.459 10 0 60558 26100.00000 0 -16186560.246 14864897.211 12981579.681 10 0 60558 27000.00000 0 -15246764.920 13382674.511 15492764.916 10 0 60558 27900.00000 0 -14292953.383 11573842.188 17703658.119 10 0 60558 28800.00000 0 -13380612.064 9467580.040 19571484.917 10 0 60558 29700.00000 0 -12559994.819 7104482.905 21060119.485 10 0 60558 30600.00000 0 -11873960.030 4535119.676 22140773.134 10 0 60558 31500.00000 0 -11356136.462 1818182.329 22792542.490 10 0 60558 32400.00000 0 -11029493.748 -981699.435 23002807.699 10 0 60558 33300.00000 0 -10905376.611 -3796388.798 22767473.744 10 0 60558 34200.00000 0 -10983042.700 -6556818.602 22091050.593 10 0 60558 35100.00000 0 -11249723.239 -9195609.274 20986570.631 10 0 60558 36000.00000 0 -11681204.158 -11649621.108 19475344.528 10 0 60558 36900.00000 0 -12242903.907 -13862336.534 17586559.431 10 0 60558 37800.00000 0 -12891403.564 -15785974.701 15356726.170 10 0 60558 38700.00000 0 -13576365.968 -17383251.378 12828984.832 10 0 60558 39600.00000 0 -14242764.121 -18628711.351 10052280.865 10 0 60558 40500.00000 0 -14833325.850 -19509577.927 7080426.439 10 0 60558 41400.00000 0 -15291092.172 -20026083.959 3971064.246 10 0 60558 42300.00000 0 -15561981.474 -20191270.212 784553.196 10 0 60558 43200.00000 0 -15597250.847 -20030259.270 -2417202.643 10 0 60558 44100.00000 0 -15355749.677 -19579035.191 -5571959.060 10 0 60558 45000.00000 0 -14805868.984 -18882780.182 -8618346.778 10 0 60558 45900.00000 0 -13927102.493 -17993838.460 -11497072.265 10 0 60558 46800.00000 0 -12711151.648 -16969393.472 -14152080.070 10 0 60558 47700.00000 0 -11162526.027 -15868956.999 -16531653.088 10 0 60558 48600.00000 0 -9298611.927 -14751776.786 -18589428.453 10 0 60558 49500.00000 0 -7149204.490 -13674272.826 -20285308.508 10 0 60558 50400.00000 0 -4755521.492 -12687611.223 -21586248.484 10 0 60558 51300.00000 0 -2168738.918 -11835518.605 -22466905.122 10 0 60558 52200.00000 0 551891.318 -11152429.718 -22910133.408 10 0 60558 53100.00000 0 3341263.475 -10662046.547 -22907321.644 10 0 60558 54000.00000 0 6130887.551 -10376369.705 -22458558.380 10 0 60558 54900.00000 0 8851503.567 -10295242.664 -21572628.107 10 0 60558 55800.00000 0 11435731.742 -10406427.572 -20266835.969 10 0 60558 56700.00000 0 13820648.245 -10686208.764 -18566665.163 10 0 60558 57600.00000 0 15950179.440 -11100497.699 -16505273.948 10 0 60558 58500.00000 0 17777215.158 -11606391.708 -14122842.464 10 0 60558 59400.00000 0 19265353.457 -12154119.775 -11465782.433 10 0 60558 60300.00000 0 20390204.950 -12689292.111 -8585825.694 10 0 60558 61200.00000 0 21140203.334 -13155357.541 -5539009.874 10 0 60558 62100.00000 0 21516889.720 -13496163.944 -2384581.635 10 0 60558 63000.00000 0 21534660.560 -13658512.859 816160.541 10 0 60558 63900.00000 0 21219991.558 -13594599.775 4001060.829 10 0 60558 64800.00000 0 20610171.988 -13264236.698 7108314.097 10 0 60558 65700.00000 0 19751604.264 -12636763.085 10077663.737 10 0 60558 66600.00000 0 18697741.612 -11692564.581 12851565.937 10 0 60558 67500.00000 0 17506751.507 -10424135.673 15376298.095 10 0 60558 68400.00000 0 16239003.554 -8836641.659 17602990.489 10 0 60558 69300.00000 0 14954487.331 -6947956.245 19488562.029 10 0 60558 70200.00000 0 13710268.090 -4788172.883 20996543.113 10 0 60558 71100.00000 0 12558086.164 -2398609.634 22097770.836 10 0 60558 72000.00000 0 11542199.560 169651.911 22770944.324 10 0 60558 72900.00000 0 10697558.856 2857634.115 23003030.473 10 0 60558 73800.00000 0 10048389.592 5600661.163 22789513.079 10 0 60558 74700.00000 0 9607240.521 8330797.829 22134480.942 10 0 60558 75600.00000 0 9374536.812 10979429.789 21050553.247 10 0 60558 76500.00000 0 9338656.616 13479880.281 19558643.272 10 0 60558 77400.00000 0 9476527.820 15769956.102 17687564.156 10 0 60558 78300.00000 0 9754720.351 17794318.553 15473483.279 10 0 60558 79200.00000 0 10130988.759 19506581.731 12959234.487 10 0 60558 80100.00000 0 10556200.962 20871051.318 10193500.192 10 0 60558 81000.00000 0 10976572.595 21864031.526 7229877.929 10 0 60558 81900.00000 0 11336113.257 22474645.444 4125848.481 10 0 60558 82800.00000 0 11579181.548 22705134.012 941664.904 10 0 60558 83700.00000 0 11653040.716 22570620.610 -2260816.279 10 0 60558 84600.00000 0 11510306.173 22098350.625 -5419338.971 10 0 60558 85500.00000 0 11111180.256 21326437.558 -8472462.621 10 0 60559 0.00000 0 10425378.311 20302168.376 -11360764.031 10 0 60559 900.00000 0 9433662.505 19079938.874 -14028003.130 10 0 60559 1800.00000 0 8128917.595 17718907.756 -16422225.238 10 0 60559 2700.00000 0 6516720.121 16280466.886 -18496782.638 10 0 60559 3600.00000 0 4615375.936 14825636.205 -20211250.872 10 0 60559 4500.00000 0 2455422.483 13412493.142 -21532222.847 10 0 60559 5400.00000 0 78615.268 12093745.410 -22433964.614 10 0 60559 6300.00000 0 -2463560.190 10914549.734 -22898919.795 10 0 60559 7200.00000 0 -5111789.547 9910668.500 -22918052.756 10 0 60559 8100.00000 0 -7801165.083 9107041.801 -22491023.884 10 0 60559 9000.00000 0 -10463662.516 8516834.574 -21626193.695 10 0 60559 9900.00000 0 -13030755.971 8140998.315 -20340455.889 10 0 60559 10800.00000 0 -15436062.202 7968364.883 -18658902.849 10 0 60559 11700.00000 0 -17617903.872 7976267.378 -16614330.351 10 0 60559 12600.00000 0 -19521685.129 8131660.656 -14246591.506 10 0 60559 13500.00000 0 -21101980.633 8392692.878 -11601812.898 10 0 60559 14400.00000 0 -22324251.363 8710660.406 -8731488.677 10 0 60559 15300.00000 0 -23166116.234 9032262.178 -5691470.836 10 0 60559 16200.00000 0 -23618127.444 9302057.069 -2540875.980 10 0 60559 17100.00000 0 -23684018.396 9465019.379 659069.494 10 0 60559 18000.00000 0 -23380415.359 9469083.579 3846222.652 10 0 60559 18900.00000 0 -22736026.585 9267570.217 6958732.025 10 0 60559 19800.00000 0 -21790344.498 8821390.183 9936236.551 10 0 60559 20700.00000 0 -20591916.832 8100934.178 12721032.091 10 0 60559 21600.00000 0 -19196260.374 7087567.746 15259183.127 10 0 60559 22500.00000 0 -17663505.497 5774668.968 17501558.689 10 0 60559 23400.00000 0 -16055870.447 4168165.192 19404773.240 10 0 60559 24300.00000 0 -14435070.890 2286546.042 20932015.426 10 0 60559 25200.00000 0 -12859772.399 160351.642 22053749.857 10 0 60559 26100.00000 0 -11383191.375 -2168843.387 22748279.516 10 0 60559 27000.00000 0 -10050943.320 -4649909.032 23002159.027 10 0 60559 27900.00000 0 -8899226.978 -7224042.017 22810451.568 10 0 60559 28800.00000 0 -7953418.917 -9826974.440 22176824.909 10 0 60559 29700.00000 0 -7227136.120 -12391419.050 21113484.768 10 0 60559 30600.00000 0 -6721805.010 -14849651.468 19640946.347 10 0 60559 31500.00000 0 -6426754.506 -17136123.775 17787647.688 10 0 60559 32400.00000 0 -6319829.097 -19190002.302 15589411.255 10 0 60559 33300.00000 0 -6368496.462 -20957525.108 13088762.836 10 0 60559 34200.00000 0 -6531403.488 -22394081.540 10334119.679 10 0 60559 35100.00000 0 -6760315.681 -23465927.343 7378862.305 10 0 60559 36000.00000 0 -7002358.628 -24151463.455 4280307.007 10 0 60559 36900.00000 0 -7202467.109 -24442024.436 1098598.241 10 0 60559 37800.00000 0 -7305938.213 -24342142.789 -2104457.880 10 0 60559 38700.00000 0 -7260980.006 -23869277.321 -5266596.333 10 0 60559 39600.00000 0 -7021146.958 -23053016.233 -8326308.331 10 0 60559 40500.00000 0 -6547557.806 -21933787.935 -11224044.579 10 0 60559 41400.00000 0 -5810800.384 -20561133.507 -13903382.410 10 0 60559 42300.00000 0 -4792441.089 -18991613.448 -16312133.076 10 0 60559 43200.00000 0 -3486073.285 -17286437.010 -18403366.808 10 0 60559 44100.00000 0 -1897858.490 -15508914.197 -20136334.856 10 0 60559 45000.00000 0 -46535.746 -13721838.040 -21477269.943 10 0 60559 45900.00000 0 2037102.857 -11984907.654 -22400049.107 10 0 60559 46800.00000 0 4311249.877 -10352300.657 -22886705.775 10 0 60559 47700.00000 0 6724591.004 -8870497.108 -22927781.023 10 0 60559 48600.00000 0 9218221.985 -7576446.203 -22522507.203 10 0 60559 49500.00000 0 11727894.393 -6496152.332 -21678820.497 10 0 60559 50400.00000 0 14186496.645 -5643739.160 -20413202.346 10 0 60559 51300.00000 0 16526666.792 -5021030.078 -18750353.058 10 0 60559 52200.00000 0 18683428.033 -4617661.382 -16722704.228 10 0 60559 53100.00000 0 20596736.834 -4411721.968 -14369779.807 10 0 60559 54000.00000 0 22213837.300 -4370891.010 -11737418.661 10 0 60559 54900.00000 0 23491323.633 -4454023.969 -8876874.254 10 0 60559 55800.00000 0 24396824.801 -4613118.395 -5843809.567 10 0 60559 56700.00000 0 24910241.625 -4795574.978 -2697207.481 10 0 60559 57600.00000 0 25024485.429 -4946656.923 501781.523 10 0 60559 58500.00000 0 24745688.474 -5012042.613 3691031.270 10 0 60559 59400.00000 0 24092878.688 -4940362.810 6808647.696 10 0 60559 60300.00000 0 23097133.727 -4685614.636 9794168.785 10 0 60559 61200.00000 0 21800251.161 -4209350.118 12589733.198 10 0 60559 62100.00000 0 20252991.571 -3482546.876 15141195.197 10 0 60559 63000.00000 0 18512968.957 -2487082.192 17399164.770 10 0 60559 63900.00000 0 16642277.061 -1216748.453 19319953.646 10 0 60559 64800.00000 0 14704950.770 322232.752 20866409.947 10 0 60559 65700.00000 0 12764368.026 2111219.769 22008626.540 10 0 60559 66600.00000 0 10880699.739 4119683.512 22724510.567 10 0 60559 67500.00000 0 9108512.760 6306242.328 23000204.222 10 0 60559 68400.00000 0 7494624.363 8620157.336 22830349.477 10 0 60559 69300.00000 0 6076296.210 11003227.521 22218192.074 10 0 60559 70200.00000 0 4879841.722 13392007.603 21175522.861 10 0 60559 71100.00000 0 3919703.759 15720258.282 19722457.196 10 0 60559 72000.00000 0 3198040.362 17921528.693 17887055.944 10 0 60559 72900.00000 0 2704835.332 19931765.182 15704794.305 10 0 60559 73800.00000 0 2418528.856 21691838.915 13217887.452 10 0 60559 74700.00000 0 2307141.811 23149887.689 10474484.743 10 0 60559 75600.00000 0 2329846.725 24263374.436 7527746.851 10 0 60559 76500.00000 0 2438919.477 25000776.196 4434822.666 10 0 60559 77400.00000 0 2581989.605 25342832.256 1255745.119 10 0 60559 78300.00000 0 2704494.080 25283298.306 -1947732.973 10 0 60559 79200.00000 0 2752230.429 24829173.957 -5113340.441 10 0 60559 80100.00000 0 2673900.433 24000393.078 -8179502.851 10 0 60559 81000.00000 0 2423535.635 22828989.070 -11086546.930 10 0 60559 81900.00000 0 1962700.619 21357769.505 -13777869.997 10 0 60559 82800.00000 0 1262379.156 19638555.441 -16201050.749 10 0 60559 83700.00000 0 304461.706 17730059.265 -18308878.836 10 0 60559 84600.00000 0 -917230.390 15695490.320 -20060282.424 10 0 60559 85500.00000 0 -2396429.026 13599989.122 -21421135.006 10 0 60560 0.00000 0 -4114434.965 11507998.344 -22364925.256 10 0 60560 900.00000 0 -6040666.743 9480680.001 -22873277.061 10 0 60560 1800.00000 0 -8133718.636 7573490.059 -22936308.318 10 0 60560 2700.00000 0 -10342887.284 5834008.325 -22552823.256 10 0 60560 3600.00000 0 -12610101.405 4300116.983 -21730333.288 10 0 60560 4500.00000 0 -14872175.069 2998602.355 -20484906.773 10 0 60560 5400.00000 0 -17063290.275 1944237.690 -18840850.736 10 0 60560 6300.00000 0 -19117604.995 1139384.191 -16830231.010 10 0 60560 7200.00000 0 -20971877.504 574125.463 -14492240.485 10 0 60560 8100.00000 0 -22567997.078 226928.000 -11872428.165 10 0 60560 9000.00000 0 -23855315.170 65798.033 -9021804.503 10 0 60560 9900.00000 0 -24792679.507 49884.093 -5995841.030 10 0 60560 10800.00000 0 -25350086.263 131455.884 -2853384.401 10 0 60560 11700.00000 0 -25509881.605 258174.228 344493.373 10 0 60560 12600.00000 0 -25267463.055 375554.783 3535685.455 10 0 60560 13500.00000 0 -24631452.240 429520.277 6658257.789 10 0 60560 14400.00000 0 -23623332.896 368932.641 9651650.004 10 0 60560 15300.00000 0 -22276570.434 147997.601 12457846.139 10 0 60560 16200.00000 0 -20635250.897 -271559.934 15022492.717 10 0 60560 17100.00000 0 -18752297.043 -918641.378 17295943.031 10 0 60560 18000.00000 0 -16687336.514 -1811318.864 19234208.186 10 0 60560 18900.00000 0 -14504311.091 -2955839.617 20799797.602 10 0 60560 19800.00000 0 -12268926.293 -4346132.214 21962433.875 10 0 60560 20700.00000 0 -10046046.706 -5963835.760 22699629.388 10 0 60560 21600.00000 0 -7897144.243 -7778851.468 22997114.592 10 0 60560 22500.00000 0 -5877904.056 -9750394.705 22849110.540 10 0 60560 23400.00000 0 -4036086.093 -11828504.976 22258440.860 10 0 60560 24300.00000 0 -2409729.773 -13955952.596 21236481.084 10 0 60560 25200.00000 0 -1025775.109 -16070464.402 19802945.960 10 0 60560 26100.00000 0 100843.359 -18107177.525 17985518.082 10 0 60560 27000.00000 0 967592.819 -20001220.583 15819323.986 10 0 60560 27900.00000 0 1584212.553 -21690315.947 13346266.533 10 0 60560 28800.00000 0 1972064.041 -23117295.299 10614225.230 10 0 60560 29700.00000 0 2162988.072 -24232423.764 7676138.693 10 0 60560 30600.00000 0 2197716.813 -24995435.263 4588986.008 10 0 60560 31500.00000 0 2123907.636 -25377193.230 1412686.018 10 0 60560 32400.00000 0 1993881.736 -25360906.143 -1791064.442 10 0 60560 33300.00000 0 1862163.366 -24942845.662 -4959990.823 10 0 60560 34200.00000 0 1782924.341 -24132535.956 -8032455.886 10 0 60560 35100.00000 0 1807442.870 -22952405.027 -10948665.231 10 0 60560 36000.00000 0 1981685.467 -21436911.663 -13651839.040 10 0 60560 36900.00000 0 2344115.727 -19631183.872 -16089326.241 10 0 60560 37800.00000 0 2923824.246 -17589225.499 -18213638.560 10 0 60560 38700.00000 0 3739060.426 -15371766.015 -19983383.498 10 0 60560 39600.00000 0 4796229.812 -13043843.712 -21364077.422 10 0 60560 40500.00000 0 6089400.795 -10672223.685 -22328822.492 10 0 60560 41400.00000 0 7600342.897 -8322758.908 -22858833.981 10 0 60560 42300.00000 0 9299096.153 -6057805.009 -22943807.626 10 0 60560 43200.00000 0 11145048.634 -3933796.843 -22582119.878 10 0 60560 44100.00000 0 13088477.537 -1999087.938 -21780857.277 10 0 60560 45000.00000 0 15072489.589 -292142.694 -20555674.570 10 0 60560 45900.00000 0 17035279.588 1159843.946 -18930484.553 10 0 60560 46800.00000 0 18912612.447 2341842.727 -16936985.929 10 0 60560 47700.00000 0 20640424.486 3251366.151 -14614038.743 10 0 60560 48600.00000 0 22157434.782 3898310.381 -12006899.913 10 0 60560 49500.00000 0 23407656.862 4304271.557 -9166334.244 10 0 60560 50400.00000 0 24342705.259 4501367.333 -6147618.799 10 0 60560 51300.00000 0 24923800.228 4530615.321 -3009460.677 10 0 60560 52200.00000 0 25123386.715 4439938.727 187150.118 10 0 60560 53100.00000 0 24926300.104 4281885.074 3380129.701 10 0 60560 54000.00000 0 24330430.462 4111155.762 6507507.592 10 0 60560 54900.00000 0 23346858.240 3982051.840 9508628.465 10 0 60560 55800.00000 0 21999456.556 3945944.560 12325324.865 10 0 60560 56700.00000 0 20323977.558 4048877.790 14903038.376 10 0 60560 57600.00000 0 18366661.686 4329403.414 17191868.003 10 0 60560 58500.00000 0 16182428.310 4816740.769 19147526.256 10 0 60560 59400.00000 0 13832723.259 5529337.284 20732185.464 10 0 60560 60300.00000 0 11383112.477 6473890.653 21915199.174 10 0 60560 61200.00000 0 8900721.201 7644873.566 22673685.814 10 0 60560 62100.00000 0 6451623.931 9024581.255 22992964.484 10 0 60560 63000.00000 0 4098292.184 10583700.558 22866835.279 10 0 60560 63900.00000 0 1897204.434 12282377.787 22297699.215 10 0 60560 64800.00000 0 -103284.097 14071742.182 21296515.569 10 0 60560 65700.00000 0 -1864724.841 15895822.982 19882597.079 10 0 60560 66600.00000 0 -3359939.573 17693781.771 18083246.269 10 0 60560 67500.00000 0 -4573908.617 19402368.537 15933238.848 10 0 60560 68400.00000 0 -5504147.251 20958500.205 13474162.912 10 0 60560 69300.00000 0 -6160554.946 22301854.861 10753625.439 10 0 60560 70200.00000 0 -6564743.948 23377373.635 7824340.152 10 0 60560 71100.00000 0 -6748875.391 24137565.463 4743113.392 10 0 60560 72000.00000 0 -6754051.864 24544517.576 1569746.929 10 0 60560 72900.00000 0 -6628334.224 24571526.409 -1634121.363 10 0 60560 73800.00000 0 -6424466.542 24204279.174 -4806216.469 10 0 60560 74700.00000 0 -6197405.795 23441534.979 -7884841.137 10 0 60560 75600.00000 0 -6001761.482 22295275.396 -10810082.456 10 0 60560 76500.00000 0 -5889254.500 20790316.727 -13524985.827 10 0 60560 77400.00000 0 -5906304.037 18963399.086 -15976672.505 10 0 60560 78300.00000 0 -6091845.958 16861789.620 -18117378.092 10 0 60560 79200.00000 0 -6475476.395 14541457.807 -19905390.929 10 0 60560 80100.00000 0 -7076000.476 12064899.001 -21305871.486 10 0 60560 81000.00000 0 -7900448.817 9498697.229 -22291536.283 10 0 60560 81900.00000 0 -8943604.542 6910929.159 -22843192.822 10 0 60560 82800.00000 0 -10188061.784 4368517.877 -22950114.936 10 0 60560 83700.00000 0 -11604814.059 1934646.945 -22610251.328 10 0 60560 84600.00000 0 -13154348.349 -333657.407 -21830263.325 10 0 60560 85500.00000 0 -14788199.272 -2387675.401 -20625391.322 10 0 60561 0.00000 0 -16450898.016 -4188784.925 -19019152.892 10 0 60561 900.00000 0 -18082235.017 -5709821.896 -17042877.788 10 0 60561 1800.00000 0 -19619738.905 -6935951.865 -14735091.450 10 0 60561 2700.00000 0 -21001270.245 -7865021.185 -12140756.549 10 0 60561 3600.00000 0 -22167618.551 -8507372.469 -9310389.862 10 0 60561 4500.00000 0 -23064994.025 -8885135.104 -6299071.465 10 0 60561 5400.00000 0 -23647308.954 -9031022.664 -3165366.277 10 0 60561 6300.00000 0 -23878152.848 -8986689.892 29820.384 10 0 60561 7200.00000 0 -23732378.439 -8800720.485 3224430.311 10 0 60561 8100.00000 0 -23197232.267 -8526332.182 6356459.351 10 0 60561 9000.00000 0 -22272982.872 -8218897.362 9365159.963 10 0 60561 9900.00000 0 -20973020.810 -7933384.675 12192215.896 10 0 60561 10800.00000 0 -19323426.909 -7721830.189 14782866.379 10 0 60561 11700.00000 0 -17362027.270 -7630944.767 17086958.548 10 0 60561 12600.00000 0 -15136974.784 -7699958.338 19059908.477 10 0 60561 13500.00000 0 -12704916.297 -7958791.390 20663553.259 10 0 60561 14400.00000 0 -10128821.331 -8426630.136 21866878.865 10 0 60561 15300.00000 0 -7475561.918 -9110964.871 22646610.859 10 0 60561 16200.00000 0 -4813342.940 -10007131.739 22987657.674 10 0 60561 17100.00000 0 -2209088.181 -11098377.360 22883398.738 10 0 60561 18000.00000 0 274111.056 -12356444.231 22335812.400 10 0 60561 18900.00000 0 2579380.611 -13742653.405 21355441.285 10 0 60561 19800.00000 0 4658184.090 -15209440.482 19961195.429 10 0 60561 20700.00000 0 6472092.750 -16702282.161 18179996.293 10 0 60561 21600.00000 0 7994132.252 -18161934.302 16046267.475 10 0 60561 22500.00000 0 9209651.027 -19526889.250 13601280.722 10 0 60561 23400.00000 0 10116674.538 -20735950.593 10892368.584 10 0 60561 24300.00000 0 10725730.928 -21730818.142 7972017.699 10 0 60561 25200.00000 0 11059155.406 -22458574.890 4896859.205 10 0 60561 26100.00000 0 11149902.603 -22873971.162 1726575.112 10 0 60561 27000.00000 0 11039916.830 -22941409.165 -1477258.510 10 0 60561 27900.00000 0 10778129.093 -22636543.235 -4652369.129 10 0 60561 28800.00000 0 10418165.677 -21947426.951 -7737002.459 10 0 60561 29700.00000 0 10015865.688 -20875157.167 -10671130.041 10 0 60561 30600.00000 0 9626713.280 -19433986.216 -13397625.397 10 0 60561 31500.00000 0 9303294.214 -17650896.001 -15863384.892 10 0 60561 32400.00000 0 9092885.452 -15564650.563 -18020370.598 10 0 60561 33300.00000 0 9035280.995 -13224365.818 -19826554.056 10 0 60561 34200.00000 0 9160947.074 -10687655.708 -21246741.863 10 0 60561 35100.00000 0 9489585.800 -8018431.889 -22253266.555 10 0 60561 36000.00000 0 10029168.948 -5284448.723 -22826529.077 10 0 60561 36900.00000 0 10775483.464 -2554696.036 -22955382.132 10 0 60561 37800.00000 0 11712208.512 103251.610 -22637346.986 10 0 60561 38700.00000 0 12811521.243 2625818.693 -21878659.627 10 0 60561 39600.00000 0 14035205.979 4955838.030 -20694145.556 10 0 60561 40500.00000 0 15336220.137 7044685.601 -19106925.865 10 0 60561 41400.00000 0 16660650.823 8854052.578 -17147960.607 10 0 60561 42300.00000 0 17949979.392 10357281.611 -14855438.657 10 0 60561 43200.00000 0 19143558.278 11540212.890 -12274026.353 10 0 60561 44100.00000 0 20181195.310 12401506.263 -9453989.995 10 0 60561 45000.00000 0 21005736.286 12952427.809 -6450209.875 10 0 60561 45900.00000 0 21565536.646 13216111.936 -3321105.671 10 0 60561 46800.00000 0 21816717.935 13226332.119 -127494.753 10 0 60561 47700.00000 0 21725113.968 13025834.099 3068593.699 10 0 60561 48600.00000 0 21267824.900 12664303.593 6205125.176 10 0 60561 49500.00000 0 20434314.079 12196055.731 9221263.123 10 0 60561 50400.00000 0 19227001.962 11677544.786 12058545.479 10 0 60561 51300.00000 0 17661332.537 11164799.898 14662011.846 10 0 60561 52200.00000 0 15765309.761 10710895.111 16981259.907 10 0 60561 53100.00000 0 13578523.522 10363560.147 18971411.404 10 0 60561 54000.00000 0 11150705.662 10163032.026 20593969.969 10 0 60561 54900.00000 0 8539875.754 10140237.228 21817555.436 10 0 60561 55800.00000 0 5810152.989 10315380.123 22618501.593 10 0 60561 56700.00000 0 3029323.923 10696996.374 22981306.906 10 0 60561 57600.00000 0 266265.537 11281510.763 22898930.443 10 0 60561 58500.00000 0 -2411671.111 12053318.058 22372927.731 10 0 60561 59400.00000 0 -4941209.928 12985384.029 21413424.125 10 0 60561 60300.00000 0 -7265527.537 14040342.315 20038925.867 10 0 60561 61200.00000 0 -9336362.524 15172042.345 18275971.796 10 0 60561 62100.00000 0 -11115769.900 16327484.783 16158631.427 10 0 60561 63000.00000 0 -12577448.708 17449064.689 13727857.838 10 0 60561 63900.00000 0 -13707588.064 18477029.430 11030706.572 10 0 60561 64800.00000 0 -14505196.608 19352048.957 8119434.423 10 0 60561 65700.00000 0 -14981901.699 20017790.864 5050494.455 10 0 60561 66600.00000 0 -15161226.652 20423391.741 1883446.008 10 0 60561 67500.00000 0 -15077376.353 20525720.209 -1320199.570 10 0 60561 68400.00000 0 -14773582.314 20291335.207 -4498175.108 10 0 60561 69300.00000 0 -14300077.089 19698055.555 -7588672.092 10 0 60561 70200.00000 0 -13711783.896 18736072.946 -10531549.200 10 0 60561 71100.00000 0 -13065819.616 17408559.680 -13269510.584 10 0 60561 72000.00000 0 -12418917.480 15731743.734 -15749230.001 10 0 60561 72900.00000 0 -11824879.341 13734446.384 -17922398.022 10 0 60561 73800.00000 0 -11332166.232 11457100.360 -19746671.109 10 0 60561 74700.00000 0 -10981730.038 8950288.595 -21186503.411 10 0 60561 75600.00000 0 -10805178.843 6272863.931 -22213844.585 10 0 60561 76500.00000 0 -10823354.175 3489727.854 -22808689.809 10 0 60561 77400.00000 0 -11045380.851 669360.738 -22959471.108 10 0 60561 78300.00000 0 -11468229.862 -2118793.545 -22663282.417 10 0 60561 79200.00000 0 -12076812.965 -4806979.757 -21925934.122 10 0 60561 80100.00000 0 -12844604.940 -7331709.755 -20761836.174 10 0 60561 81000.00000 0 -13734767.088 -9636160.154 -19193712.307 10 0 60561 81900.00000 0 -14701724.252 -11672289.757 -17252151.174 10 0 60561 82800.00000 0 -15693128.351 -13402589.154 -14975003.476 10 0 60561 83700.00000 0 -16652125.068 -14801390.527 -12406637.207 10 0 60561 84600.00000 0 -17519827.470 -15855684.306 -9597065.974 10 0 60561 85500.00000 0 -18237891.573 -16565410.108 -6600967.929 99